Regional Weather Roundup
Issued by NWS Spokane, WA

Home | Current Version | Previous Version | Text Only | Print | Product List | Glossary On
Versions: 1 2 3 4 5 6 7 8 9 10 11 12 13 14 15 16 17 18 19 20 21 22 23 24 25 26 27 28 29 30 31 32 33 34 35 36 37 38 39 40 41 42 43 44 45 46 47 48 49 50
000
NZUS01 KOTX 231910
RWROTX

Eastern Washington/Northern Idaho Roundup
National Weather Service, Spokane WA
1200 PM PDT SUN JUL 23 2017

Note: "fair" indicated few or no clouds below 12,000 feet with no
significant weather and/or obstructions to visibility.

...Northeast Washington and Northern Idaho Panhandle...

CITY           SKY/WX    TMP DP  RH WIND       PRES   REMARKS
Spokane Intl   MOSUNNY   86  48  26 SW15      29.96F
Spokane Downto SUNNY     90  50  25 SW8G17    29.94F
Coeur d Alene  SUNNY     85  53  33 VRB3      29.97F
Deer Park      SUNNY     88  48  25 VRB7G17   29.94F
Sandpoint      SUNNY     82  54  36 E7        29.94F
Bonners Ferry  FAIR      84  54  34 S12G22    29.92F

...Southeast Washington and southern Idaho Panhandle...

CITY           SKY/WX    TMP DP  RH WIND       PRES   REMARKS
Walla Walla    SUNNY     90  51  26 VRB5      29.92F
Pullman/Moscow SUNNY     86  47  25 VRB6      30.01F
Lewiston       SUNNY     89  50  26 CALM      29.93F
Lowell           N/A     87  51  28 NW3       29.92F
Grangeville    FAIR      82  46  28 NE7       30.03F

...Columbia Basin...

CITY           SKY/WX    TMP DP  RH WIND       PRES   REMARKS
Ephrata        SUNNY     88  51  28 SW13      29.90F
Moses Lake     SUNNY     89  55  31 SW9       29.91F
Pasco          SUNNY     91  57  31 CALM      29.88F
Richland       CLEAR     92  56  29 SE6       29.88F HX  90
Hermiston      SUNNY     91  58  32 W8        29.89F HX  90
Pendleton      SUNNY     91  52  26 NW6       29.93F

...East Slopes Cascades...

CITY           SKY/WX    TMP DP  RH WIND       PRES   REMARKS
The Dalles     SUNNY     88  62  41 NW20G26   29.89F
Yakima         SUNNY     90  57  32 CALM      29.92F
Ellensburg     SUNNY     87  54  32 NW17G25   29.95F
Stampede Pass  PTSUNNY   66  56  70 VRB7      30.13F
Wenatchee      SUNNY     86  53  32 W8        29.90F
Omak           SUNNY     87  50  27 S7        29.89F
Sunnyside        N/A     84  61  44 CALM      29.90F

...Southern British Columbia...

CITY           SKY/WX    TMP DP  RH WIND       PRES   REMARKS
Penticton      MOSUNNY   84  59  42 N10       29.87F
Castlegar      MOSUNNY   84  55  37 VRB7      29.87F
Cranbrook      MOSUNNY   86  48  26 S22G29    29.89F
Osoyoos          N/A     86  52  30 N1          N/A
Creston          N/A     84  57  39 NW5         N/A

...Western Montana...

CITY           SKY/WX    TMP DP  RH WIND       PRES   REMARKS
Kalispell      CLEAR     85  49  28 S10       29.96F
Libby            N/A     88  48  25 N6        29.91F
Missoula       SUNNY     84  45  25 SW3       29.99F

...Neighboring Cities...

CITY           SKY/WX    TMP DP  RH WIND       PRES   REMARKS
Seattle        PTSUNNY   71  56  58 N8        30.10F
Portland       PTSUNNY   74  61  63 NW10      30.03F
Boise          SUNNY     89  45  21 NW7       29.99F
Great Falls    SUNNY     90  39  16 W9        29.97F
Calgary        MOSUNNY   82  48  30 S5        29.87F



USA.gov is the U.S. government's official web portal to all federal, state and local government web resources and services.